Hourly Data Report for October 30, 2014

All times are specified in Local Standard Time (LST). Add 1 hour to adjust for Daylight Saving Time where and when it is observed.

CAPE DORSET A
NUNAVUT

64°13'49.000" N
76°31'30.000" W
48.20 m
2400637
71366
YTE

Download Data

Hourly Data (October 2014)
Hourly Data Report for October 30, 2014
Temp Definition
°C
Dew Point Temp Definition
°C
Rel Hum Definition
%
Wind Dir Definition
10's deg

Wind Spd Definition
km/h
Visibility Definition
km
Stn Press Definition
kPa
Hmdx Definition


Wind Chill Definition


Weather Definition


TIME
00:00 Legend Double Dagger -5.7 -8.6 80 1 18 16.1 100.28   -12 Snow
01:00 Legend Double Dagger -5.8 -8.2 83 36 21 16.1 100.25   -13 Snow
02:00 Legend Double Dagger -5.7 -8.1 83 36 22 16.1 100.23   -13 Snow
03:00 Legend Double Dagger -6.0 -8.4 83 2 22 16.1 100.21   -13 Snow
04:00 Legend Double Dagger -6.2 -8.2 86 2 26 16.1 100.21   -14 Snow
05:00 Legend Double Dagger -6.3 -8.3 86 1 22 16.1 100.20   -14 Snow
06:00 Legend Double Dagger -6.0 -7.8 87 1 18 16.1 100.20   -12 Snow
07:00 Legend Double Dagger -6.6 -8.2 89 36 26 16.1 100.22   -15 Snow
08:00 Legend Double Dagger -6.5 -8.0 89 36 28 16.1 100.18   -15 LegendNANA
09:00 Legend Double Dagger -6.6 -8.1 89 1 32 11.3 100.18   -15 Snow
10:00 Legend Double Dagger -6.7 -8.6 87 36 30 16.1 100.18   -15 Snow
11:00 Legend Double Dagger -6.8 -8.8 86 1 34 16.1 100.18   -16 Snow
12:00 Legend Double Dagger -7.1 -8.7 88 1 34 1.6 100.19   -16 Snow
13:00 Legend Double Dagger -6.9 -8.6 88 36 28 3.2 100.19   -15 Snow
14:00 Legend Double Dagger -6.8 -8.9 85 36 22 9.7 100.21   -14 Snow
15:00 Legend Double Dagger -7.0 -8.7 88 1 24 4.8 100.19   -15 Snow
16:00 Legend Double Dagger -7.2 -9.0 87 1 37 4.8 100.15   -17 Snow
17:00 Legend Double Dagger -7.3 -9.3 86 36 32 16.1 100.17   -16 LegendNANA
18:00 Legend Double Dagger -7.2 -9.3 85 1 48 8.1 100.16   -18 Snow
19:00 Legend Double Dagger -6.9 -8.7 87 36 41 3.2 100.16   -17 Snow
20:00 Legend Double Dagger -6.7 -8.5 87 36 46 2.8 100.16   -17 Snow
21:00 Legend Double Dagger -6.5 -8.7 84 36 46 4.0 100.14   -17 Snow
22:00 Legend Double Dagger -6.4 -8.5 85 36 37 8.1 100.15   -16 Snow
23:00 Legend Double Dagger -6.2 -8.5 84 36 46 4.0 100.11   -16 Snow

Notes on Data Quality.

Legend

  • E = Estimated
  • M = Missing
  • NA = Not Available
  • ‡ = Partner data that is not subject to review by the National Climate Archives
Date modified: